Location: ??
(34.9367°N, 135.5074°E)
Time: 15:49:27
(UTC+00:00)

Daily predictions for brighter satellites

Satellite Brightness Start Highest point End
(mag) Time Altitude Azimuth Time Altitude Azimuth Time Altitude Azimuth
SL-8 Rocket 4.1 12:04:53 10° N 12:11:11 71° W 12:11:11 71° W
Resurs 01 Rocket 3.8 12:24:06 23° WNW 12:24:06 23° WNW 12:26:36 10° NW
Cosmos 2366 rocket 4.4 12:18:20 10° NNW 12:23:27 59° NW 12:23:27 59° NW
CZ-4C R/B 4.2 13:24:11 10° NNW 13:28:35 34° N 13:28:35 34° N
SL-16 R/B 4.5 16:17:15 23° N 16:17:15 23° N 16:19:38 10° N
CZ-2D R/B 4.3 16:56:08 10° N 16:57:44 20° N 16:57:44 20° N
CENTAUR R/B 3.9 17:03:37 30° ENE 17:03:37 30° ENE 17:07:29 10° NE
Cosmos 2237 Rocket 4.1 17:12:33 10° NNW 17:14:37 23° N 17:14:37 23° N
VEP-3 4.4 17:21:14 39° SSE 17:21:27 39° SSE 17:43:01 10° E
NOSS 3-2 (C) 4.0 17:32:51 50° NE 17:32:51 50° NE 17:37:26 10° NNE
Cosmos 2297 Rocket 3.5 17:34:42 34° N 17:34:42 34° N 17:37:55 10° NNE
H-2A R/B 4.4 17:45:31 18° N 17:45:31 18° N 17:46:40 10° N
Cosmos 2142 Rocket 4.5 17:47:06 10° N 17:53:27 78° E 17:53:35 78° E
Cosmos 2227 Rocket 3.3 18:00:45 33° NNW 18:00:45 33° NNW 18:04:25 10° N
ATLAS 3B R/B 2.8 17:58:47 56° SSE 17:59:42 61° ESE 18:06:13 10° NE
ADEOS II 3.4 17:54:49 10° N 17:57:39 29° NNW 17:57:39 29° NNW
USA 267 3.2 17:58:03 10° NE 18:04:31 66° NW 18:05:04 64° WNW
IDEFIX/ARIANE 42P 2.8 18:07:14 10° NNE 18:12:25 66° ESE 18:12:59 61° SE
ATLAS 5 CENTAUR R/B 3.7 18:12:03 30° SSE 18:13:27 34° SE 18:16:35 10° ENE
Nadezhda 4 Rocket 4.5 18:10:58 29° SSE 18:14:06 59° E 18:20:19 10° NNE
ARIANE 5 R/B 3.4 18:10:51 10° N 18:14:29 38° NNW 18:14:29 38° NNW
MSX 4.5 18:13:16 10° NNE 18:18:53 52° E 18:21:57 26° SSE
Spot 4 Rocket 4.4 18:13:50 10° N 18:18:05 52° NW 18:18:05 52° NW
Cosmos 2279 Rocket 3.8 18:13:54 10° N 18:20:09 78° W 18:21:29 57° SSW
Cosmos 2221 Rocket 4.0 18:22:50 56° N 18:22:50 56° N 18:26:22 10° N
BREEZE-M DEB 4.4 18:25:32 44° WNW 18:27:01 56° NNW 18:43:46 10° NE
CZ-2C R/B 3.9 18:23:53 10° N 18:26:28 38° N 18:26:28 38° N
PSLV R/B 4.2 18:29:44 10° NNE 18:34:02 53° E 18:35:38 34° SSE
Okean 2 Rocket 3.1 18:29:41 10° N 18:34:13 79° E 18:35:35 45° SSE
Cosmos 2151 Rocket 4.3 18:31:30 10° N 18:35:48 52° E 18:40:05 10° SSE
Cosmos 397 4.4 18:36:15 79° SW 18:36:30 86° WNW 18:40:38 10° NNE
CZ-4B R/B 2.6 18:36:56 22° SE 18:38:52 44° ENE 18:42:12 10° N
SL-16 R/B 2.0 18:33:43 10° NNW 18:39:23 82° WSW 18:45:03 10° SSE
Gbstr 26 Del rocket 4.0 18:38:37 39° SSW 18:40:59 67° SE 18:46:27 10° NE
Meteor 1-13 Rocket 4.2 18:38:41 32° S 18:41:32 88° E 18:47:12 10° N
Cosmos 494 Rocket 3.9 18:43:04 10° NNW 18:48:20 72° WSW 18:53:34 10° S
CENTAUR R/B 3.3 18:50:47 29° WNW 18:52:18 32° NW 18:58:16 10° NNE
Shenzhou-11 Module 3.3 18:55:32 30° ESE 18:55:32 30° ESE 18:57:12 10° ENE
Meteor 1-4 Rocket 2.6 18:56:08 58° WNW 18:56:08 58° WNW 18:59:47 10° N
Cosmos 1818 3.7 18:51:16 10° NNW 18:56:43 75° ENE 19:02:07 10° SE
Cosmos 967 Rocket 4.4 18:53:05 10° NNW 18:59:33 86° WSW 19:05:55 10° SSE
Meteor 1-23 Rocket 4.5 18:57:37 10° S 19:03:17 72° E 19:09:02 10° NNE
ATLAS 5 CENTAUR R/B 3.4 18:58:18 10° NNW 19:04:09 52° NE 19:10:48 10° SE
COBE Rocket 4.1 19:03:28 34° SW 19:04:49 42° W 19:09:17 10° NNW
Cosmos 1867 3.6 19:03:20 33° SW 19:05:40 62° WNW 19:11:06 10° NNE
Cosmos 2263 Rocket 2.2 19:02:31 20° SSW 19:06:34 88° ESE 19:12:17 10° NNE
Meteor 1-12 Rocket 4.3 19:00:57 10° NNW 19:06:48 65° W 19:12:32 10° S
Cosmos 1269 Rocket 4.0 19:08:11 10° NNW 19:13:25 61° WSW 19:18:37 10° S
Cosmos 2195 Rocket 4.4 19:07:51 10° S 19:14:01 86° W 19:20:16 10° N
Cosmos 1689 Rocket 2.4 19:11:24 10° SSE 19:14:23 66° ENE 19:17:21 10° N
Cosmos 1627 Rocket 4.4 19:12:09 10° S 19:18:18 87° W 19:24:26 10° N
ALOS 4.4 19:14:47 10° NE 19:18:43 27° E 19:22:39 10° SSE
Okean 1 Rocket 3.3 19:14:23 10° N 19:18:45 70° E 19:23:09 10° SSE
Cosmos 1378 4.3 19:15:38 10° SSE 19:19:10 44° E 19:22:44 10° NNE
SJ-6F 4.5 19:16:01 10° NNE 19:20:11 83° ESE 19:24:22 10° S
Chandra Rocket (1) 4.1 19:07:45 20° WSW 19:20:15 58° S 19:25:44 10° ESE
Geosat 4.1 19:17:14 10° NNE 19:22:09 55° WNW 19:25:38 19° SW
Cosmos 1484 Rocket 4.4 19:19:34 10° NNE 19:23:02 35° E 19:26:27 10° SSE
Cosmos 1674 Rocket 4.4 19:31:09 19° SW 19:33:27 31° WNW 19:37:21 10° NNW
Meteor 2-13 Rocket 4.5 19:29:12 10° S 19:35:14 86° E 19:41:19 10° N
CZ-4B R/B 3.6 19:35:05 10° NNE 19:39:28 64° E 19:43:57 10° S
Lacrosse 5 3.7 19:35:55 10° S 19:40:12 28° ESE 19:44:30 10° ENE
BREEZE-M DEB (TANK) 3.5 19:44:20 10° S 19:46:17 19° SE 19:48:03 10° E
CZ-2C R/B 2.8 19:42:57 10° N 19:47:09 37° WNW 19:51:22 10° SW
Spot 2 4.5 19:43:20 10° N 19:48:26 68° WNW 19:53:26 10° SSW
Cosmos 1437 Rocket 3.0 19:46:19 10° SSW 19:50:18 50° W 19:54:16 10° N
ATLAS 3B R/B 3.8 19:46:04 12° W 19:50:45 25° NW 19:56:06 10° N
IDEFIX/ARIANE 42P 4.4 19:48:57 10° NW 19:51:24 13° WNW 19:53:48 10° W
Cosmos 2026 Rocket 4.3 19:50:42 10° SSW 19:56:27 43° W 20:02:12 10° N
CRYOSAT 2 4.4 19:51:45 10° N 19:56:38 90° ESE 20:01:30 10° S
Cosmos 1943 3.2 19:51:40 10° NNW 19:57:23 87° WSW 20:03:04 10° SSE
STARLINK-1133 4.4 19:56:43 10° SSW 20:00:01 39° SE 20:03:19 10° ENE
STARLINK-1139 4.4 19:58:20 10° SSW 20:01:39 41° SE 20:04:58 10° ENE
STARLINK-1174 4.3 19:59:58 10° SSW 20:03:18 43° SE 20:06:39 10° ENE
STARLINK-1132 4.1 20:00:43 10° SSW 20:04:14 49° SE 20:07:47 10° NE
FENGYUN 3A 3.8 20:00:30 10° NNE 20:05:54 86° ESE 20:11:17 10° SSW
STARLINK-1180 4.1 20:03:17 10° SSW 20:06:41 47° SE 20:10:05 10° ENE
STARLINK-1177 4.0 20:03:56 10° SSW 20:07:30 54° SE 20:11:05 10° NE
STARLINK-1153 4.0 20:04:58 10° SSW 20:08:24 49° SE 20:11:49 10° NE
Meteor 1-31 Rocket 3.4 20:05:33 10° N 20:09:11 36° WNW 20:12:45 10° SW
STARLINK-1167 3.8 20:06:46 10° SSW 20:10:21 58° SE 20:13:58 10° NE
Cosmos 2266 Rocket 4.4 20:06:13 10° S 20:12:33 74° E 20:18:58 10° N
